Home   Weather   43°11'N, 78°39'W   Past weeks
Flag for USA

Past Weather in 43°11'N, 78°39'W, USA — Yesterday and Last 2 Weeks

Now
47 °F

Scattered clouds.


Feels Like: 42 °F
Forecast: 48 / 40 °F
Wind: 10 mph from Southwest

Location: Greater Buffalo International Airport

Current Time: Oct 18, 2019 at 6:04:31 pm

Latest Report: Oct 18, 2019 at 4:54 pm


Visibility: 10 mi

Pressure: 30.03 "Hg

Humidity: 66%

Dew Point: 36 °F

Location of 43°11'N, 78°39'WLocation

Past Weather in 43°11'N, 78°39'W — Graph

°F

43°11'N, 78°39'W Temperature Yesterday

Maximum temperature yesterday: 46 °F (at 3:54 pm)
Minimum temperature yesterday: 43 °F (at 4:54 am)
Average temperature yesterday: 44 °F

High & Low Weather Summary for the Past Weeks

 TemperatureHumidityPressure
High72 °F (Oct 11, 2:54 pm)100% (Oct 3, 6:54 pm)30.43 "Hg (Oct 3, 6:54 pm)
Low36 °F (Oct 15, 6:54 am)22% (Oct 11, 12:54 pm)29.45 "Hg (Oct 17, 3:54 am)
Average51 °F74%30.04 "Hg
* Reported Oct 3 4:01 pm — Oct 18 3:54 pm, 43°11'N, 78°39'W. Weather by CustomWeather, © 2019

Note: Actual official high and low records may vary slightly from our data, if they occured in-between our weather recording intervals... More about our weather records

Advertising

43°11'N, 78°39'W Weather History for the Previous 24 Hours

Scroll right to see more
 ConditionsComfort  
Time TempWeatherWind HumidityBarometerVisibility
3:54 pm
Fri, Oct 18
47 °FScattered clouds.6 mph66%30.03 "Hg10 mi
2:54 pm47 °FPartly sunny.8 mph64%30.03 "Hg10 mi
1:54 pm47 °FScattered clouds.9 mph64%30.03 "Hg10 mi
12:54 pm46 °FPartly sunny.12 mph66%30.04 "Hg10 mi
11:54 am45 °FPartly sunny.9 mph68%30.03 "Hg10 mi
10:54 am44 °FPartly sunny.10 mph73%30.03 "Hg10 mi
9:54 am42 °FPartly sunny.12 mph79%30.01 "Hg10 mi
8:54 am42 °FPartly sunny.6 mph82%30.00 "Hg10 mi
8:21 am42 °FPartly sunny.7 mph82%29.97 "Hg10 mi
7:54 am42 °FBroken clouds.8 mph85%29.98 "Hg10 mi
7:20 am42 °FPassing clouds.8 mph82%29.96 "Hg10 mi
6:54 am42 °FPassing clouds.10 mph82%29.97 "Hg10 mi
6:24 am42 °FMostly cloudy.9 mph85%29.94 "Hg10 mi
5:54 am42 °FOvercast.9 mph85%29.94 "Hg10 mi
4:54 am41 °FPassing clouds.8 mph89%29.91 "Hg10 mi
3:54 am42 °FPartly cloudy.7 mph73%29.89 "Hg10 mi
2:54 am43 °FMostly cloudy.8 mph76%29.88 "Hg10 mi
1:54 am44 °FOvercast.13 mph73%29.86 "Hg10 mi
1:20 am44 °FMostly cloudy.12 mph76%29.84 "Hg10 mi
12:54 am44 °FMostly cloudy.8 mph76%29.85 "Hg10 mi
11:54 pm
Thu, Oct 17
44 °FMostly cloudy.13 mph73%29.84 "Hg10 mi
11:26 pm44 °FMostly cloudy.17 mph76%29.82 "Hg10 mi
10:54 pm44 °FMostly cloudy.15 mph76%29.83 "Hg10 mi
9:54 pm45 °FMostly cloudy.15 mph76%29.81 "Hg10 mi
8:54 pm45 °FMostly cloudy.18 mph80%29.80 "Hg10 mi
7:54 pm44 °FMostly cloudy.14 mph82%29.78 "Hg10 mi
6:54 pm44 °FMostly cloudy.17 mph82%29.75 "Hg10 mi
Weather by CustomWeather, © 2019

See weather overview